WD1L Weather Reports


time (UTC)temp
C
wind
direction
speed
KPH
gust
KPH
rain 1hr
cm
rain 24hr
cm
rain mn
cm
humidity
%
barometer
mb
20260507183334 18 213 0.0 0.0 0.00 0.79 0.64 42 1003.1
20260507182334 18 302 0.0 4.8 0.00 0.79 0.64 45 1003.2
20260507181834 18 187 0.0 0.0 0.00 0.79 0.64 42 1003.2
20260507181334 18 238 0.0 9.7 0.00 0.79 0.64 41 1003.4
20260507180834 18 320 0.0 9.7 0.00 0.79 0.64 42 1003.4
20260507180335 18 209 0.0 3.2 0.00 0.79 0.64 46 1003.5
20260507175834 18 298 0.0 9.7 0.00 0.79 0.64 42 1003.5
20260507175334 18 359 0.0 9.7 0.00 0.79 0.64 40 1003.5
20260507174834 18 202 0.0 6.4 0.00 0.79 0.64 42 1003.5
20260507173834 18 241 0.0 8.0 0.00 0.79 0.64 43 1003.6
20260507173334 18 202 0.0 8.0 0.00 0.79 0.64 45 1003.6
20260507172834 18 229 0.0 6.4 0.00 0.79 0.64 46 1003.6
20260507172334 18 211 0.0 11.3 0.00 0.79 0.64 48 1003.6
20260507171834 18 231 0.0 11.3 0.00 0.79 0.64 51 1003.6
20260507171334 18 212 0.0 3.2 0.00 0.79 0.64 57 1004.0
20260507170835 17 197 0.0 1.6 0.00 0.79 0.64 57 1003.9
20260507170334 17 289 0.0 1.6 0.00 0.79 0.64 58 1003.9
20260507165834 17 218 0.0 0.0 0.00 0.79 0.64 59 1003.9
20260507165334 17 243 0.0 3.2 0.00 0.79 0.64 59 1003.9
20260507164835 17 214 0.0 9.7 0.00 0.79 0.64 57 1003.9
20260507164334 17 278 0.0 14.5 0.00 0.79 0.64 62 1004.0
20260507163834 16 325 0.0 14.5 0.00 0.79 0.64 60 1004.0
20260507163334 16 189 0.0 0.0 0.00 0.79 0.64 62 1004.0
20260507162834 16 252 0.0 0.0 0.00 0.79 0.64 63 1004.2
20260507161834 17 235 0.0 6.4 0.00 0.79 0.64 63 1004.2
20260507161334 17 230 0.0 0.0 0.00 0.79 0.64 62 1004.4
20260507160834 17 230 0.0 0.0 0.00 0.79 0.64 64 1004.4
20260507160334 17 217 0.0 0.0 0.00 0.79 0.64 62 1004.4
20260507155834 17 36 0.0 4.8 0.00 0.79 0.64 63 1004.6
20260507155334 17 314 0.0 4.8 0.00 0.79 0.64 63 1004.6
20260507153834 16 352 1.6 3.2 0.00 0.79 0.64 64 1004.7
20260507153334 16 109 0.0 3.2 0.00 0.79 0.64 67 1004.7
20260507152334 16 195 0.0 6.4 0.00 0.79 0.64 64 1004.9
20260507151834 16 250 0.0 3.2 0.00 0.79 0.64 66 1004.9
20260507151334 16 307 0.0 0.0 0.00 0.79 0.64 64 1005.1
20260507150834 16 215 0.0 0.0 0.00 0.79 0.64 64 1005.1
20260507150334 16 210 0.0 0.0 0.00 0.79 0.64 65 1005.1
20260507145834 15 321 0.0 0.0 0.00 0.79 0.64 65 1005.1
20260507145334 15 317 0.0 0.0 0.00 0.79 0.64 66 1005.1
20260507144834 15 343 0.0 0.0 0.00 0.79 0.64 74 1005.1
20260507144334 15 34 0.0 8.0 0.00 0.79 0.64 75 1005.1
20260507143834 14 161 0.0 9.7 0.00 0.79 0.64 73 1005.1
20260507143334 13 45 8.0 9.7 0.00 0.79 0.64 80 1005.1
20260507142834 13 219 0.0 0.0 0.00 0.79 0.64 78 1005.3
20260507142334 13 178 0.0 0.0 0.00 0.79 0.64 77 1005.3
20260507141834 13 344 0.0 0.0 0.00 0.79 0.64 81 1005.3
20260507141334 13 349 0.0 0.0 0.00 0.79 0.64 80 1005.5
20260507140834 12 210 0.0 4.8 0.00 0.79 0.64 80 1005.5
20260507140334 12 34 0.0 4.8 0.00 0.79 0.64 80 1005.5
20260507135834 12 302 0.0 1.6 0.00 0.79 0.64 82 1005.2
20260507133834 11 233 0.0 0.0 0.00 0.79 0.64 86 1005.6
20260507133334 11 254 0.0 0.0 0.00 0.79 0.64 88 1005.6
20260507132834 11 210 0.0 3.2 0.00 0.79 0.64 89 1005.2
20260507132334 11 359 0.0 3.2 0.00 0.79 0.64 90 1005.2
20260507131834 11 270 0.0 8.0 0.00 0.79 0.64 91 1005.2
20260507131334 10 197 0.0 8.0 0.00 0.79 0.64 91 1005.4
20260507130834 10 250 0.0 0.0 0.00 0.79 0.64 91 1005.4
20260507130334 10 259 0.0 0.0 0.00 0.79 0.64 92 1005.4
20260507125834 10 279 0.0 0.0 0.00 0.79 0.64 92 1005.4
20260507125334 10 266 0.0 0.0 0.00 0.79 0.64 92 1005.4
20260507124834 10 266 0.0 0.0 0.00 0.79 0.64 92 1005.4
20260507123834 10 269 0.0 0.0 0.00 0.79 0.64 92 1005.7
20260507123334 10 269 0.0 0.0 0.00 0.79 0.64 92 1005.7
20260507122334 10 269 0.0 0.0 0.03 0.79 0.64 92 1005.8
20260507121834 10 269 0.0 0.0 0.03 0.79 0.64 92 1005.8
20260507121335 10 269 0.0 0.0 0.05 0.79 0.64 92 1005.3
20260507120834 10 269 0.0 0.0 0.08 0.79 0.64 92 1005.3
20260507120334 10 269 0.0 0.0 0.10 0.79 0.64 92 1005.3
20260507115834 9 269 0.0 0.0 0.10 0.79 0.64 92 1005.4
20260507115334 9 269 0.0 0.0 0.10 0.79 0.64 91 1005.4
20260507114834 9 269 0.0 0.0 0.10 0.79 0.64 92 1005.4
20260507114334 9 269 0.0 0.0 0.10 0.79 0.64 91 1005.7
20260507113834 9 269 0.0 0.0 0.10 0.79 0.64 91 1005.7
20260507112834 9 269 0.0 0.0 0.10 0.79 0.64 91 1005.2
20260507112334 9 269 0.0 0.0 0.08 0.76 0.61 91 1005.2
20260507111835 9 269 0.0 0.0 0.08 0.76 0.61 91 1005.2
20260507111334 9 269 0.0 0.0 0.05 0.74 0.58 91 1005.6
20260507110834 9 269 0.0 0.0 0.05 0.71 0.56 91 1005.6
20260507110334 9 269 0.0 0.0 0.03 0.69 0.53 91 1005.6
20260507105835 9 269 0.0 0.0 0.05 0.69 0.53 91 1004.8
20260507105334 9 282 0.0 0.0 0.05 0.69 0.53 91 1004.8
20260507104834 9 282 0.0 0.0 0.05 0.69 0.53 91 1004.8
20260507104335 9 282 0.0 0.0 0.05 0.69 0.53 91 1005.2
20260507103834 9 288 0.0 0.0 0.08 0.69 0.53 91 1005.2
20260507103334 9 292 0.0 0.0 0.08 0.69 0.53 91 1005.2
20260507102835 9 292 0.0 0.0 0.08 0.69 0.53 91 1005.3
20260507102334 10 274 0.0 0.0 0.08 0.69 0.53 91 1005.3
20260507101834 10 183 0.0 0.0 0.08 0.69 0.53 91 1005.3
20260507101334 9 240 0.0 0.0 0.08 0.69 0.53 91 1005.1
20260507100834 9 240 0.0 0.0 0.05 0.66 0.51 91 1005.1
20260507100334 9 224 0.0 3.2 0.05 0.66 0.51 91 1005.1
20260507095834 10 224 0.0 3.2 0.03 0.64 0.48 91 1005.1
20260507095335 10 232 0.0 0.0 0.05 0.64 0.48 90 1005.1
20260507094836 10 232 0.0 0.0 0.05 0.64 0.48 91 1005.1
20260507092834 10 211 0.0 4.8 0.08 0.61 0.46 90 1004.9
20260507092335 10 212 0.0 6.4 0.08 0.61 0.46 90 1004.9
20260507091834 10 212 4.8 6.4 0.10 0.61 0.46 90 1004.9
20260507091334 10 209 0.0 3.2 0.18 0.61 0.46 90 1004.5
20260507090834 10 1 0.0 0.0 0.23 0.61 0.46 90 1004.5
20260507090334 11 231 0.0 1.6 0.28 0.61 0.46 90 1004.5
20260507085334 11 231 0.0 0.0 0.30 0.58 0.43 91 1004.5
20260507084834 11 231 0.0 0.0 0.33 0.58 0.43 91 1004.5
20260507083834 11 115 0.0 0.0 0.36 0.56 0.41 91 1004.1
20260507083334 11 115 0.0 0.0 0.38 0.53 0.38 91 1004.1
20260507082834 11 112 0.0 0.0 0.38 0.53 0.38 91 1004.4
20260507082334 11 112 0.0 0.0 0.38 0.53 0.38 91 1004.4
20260507081334 12 131 0.0 0.0 0.28 0.43 0.28 90 1004.3
20260507080834 12 133 0.0 0.0 0.23 0.38 0.23 90 1004.3
20260507080334 12 133 0.0 1.6 0.18 0.33 0.18 90 1004.3
20260507075834 12 133 0.0 1.6 0.15 0.30 0.15 90 1004.0
20260507075334 12 83 0.0 0.0 0.13 0.28 0.13 90 1004.0
20260507074834 12 328 0.0 0.0 0.10 0.25 0.10 90 1004.0
20260507074334 12 290 0.0 0.0 0.08 0.23 0.08 90 1003.6
20260507073834 12 230 0.0 0.0 0.05 0.20 0.05 89 1003.6
20260507073334 13 238 0.0 0.0 0.00 0.15 0.00 90 1003.6
20260507072834 13 52 0.0 0.0 0.00 0.15 0.00 90 1003.1
20260507072334 13 58 0.0 0.0 0.00 0.15 0.00 91 1003.1
20260507071834 13 40 0.0 0.0 0.00 0.15 0.00 91 1003.1
20260507071334 13 211 0.0 0.0 0.00 0.15 0.00 92 1003.1
20260507070334 14 212 0.0 0.0 0.00 0.15 0.00 92 1003.1
20260507065834 14 212 0.0 0.0 0.00 0.15 0.00 92 1003.1
20260507065334 14 212 0.0 0.0 0.00 0.15 0.00 92 1003.1
20260507064834 13 212 0.0 0.0 0.00 0.15 0.00 92 1003.1
20260507064334 13 212 0.0 0.0 0.00 0.15 0.00 92 1003.2
20260507063835 13 212 0.0 0.0 0.00 0.15 0.00 92 1003.2
20260507063334 13 212 0.0 0.0 0.00 0.15 0.00 92 1003.2
20260507062334 14 212 0.0 0.0 0.00 0.15 0.00 92 1003.5
20260507061834 14 212 0.0 0.0 0.00 0.15 0.00 92 1003.5
20260507061334 14 212 0.0 0.0 0.00 0.15 0.00 92 1003.6
20260507060834 13 212 0.0 0.0 0.00 0.15 0.00 92 1003.6
20260507055834 14 212 0.0 0.0 0.00 0.15 0.00 92 1003.8
20260507055334 13 212 0.0 0.0 0.00 0.15 0.00 92 1003.8
20260507054834 14 212 0.0 0.0 0.00 0.15 0.00 92 1003.8
20260507053834 13 212 0.0 0.0 0.00 0.15 0.00 92 1003.8
20260507053334 13 212 0.0 0.0 0.00 0.15 0.00 92 1003.8
20260507052834 13 212 0.0 0.0 0.00 0.15 0.00 92 1003.9
20260507051834 13 212 0.0 0.0 0.00 0.15 0.00 92 1003.9
20260507051334 13 212 0.0 0.0 0.00 0.15 0.00 92 1004.1
20260507050834 13 212 0.0 0.0 0.00 0.15 0.00 92 1004.1
20260507050336 13 212 0.0 0.0 0.00 0.15 0.00 92 1004.1
20260507045334 13 212 0.0 0.0 0.00 0.15 0.00 92 1004.1
20260507044834 13 212 0.0 0.0 0.00 0.15 0.00 92 1004.1
20260507044334 13 212 0.0 0.0 0.00 0.15 0.00 92 1004.1
20260507043834 13 212 0.0 0.0 0.00 0.15 0.00 92 1004.1
20260507043335 13 212 0.0 0.0 0.00 0.15 0.00 92 1004.1
20260507041834 13 212 0.0 0.0 0.00 0.15 0.00 92 1004.0
20260507041335 13 212 0.0 0.0 0.00 0.15 0.00 92 1004.0
20260507040834 13 212 0.0 0.0 0.00 0.15 0.00 92 1004.0
20260507035834 13 212 0.0 0.0 0.00 0.15 0.00 92 1004.1
20260507035335 13 212 0.0 0.0 0.00 0.15 0.00 92 1004.1
20260507034834 13 211 0.0 0.0 0.00 0.15 0.00 92 1004.1
20260507034334 13 211 0.0 0.0 0.00 0.15 0.00 92 1004.4
20260507033834 13 211 0.0 0.0 0.00 0.15 0.00 92 1004.4
20260507032834 13 211 0.0 0.0 0.00 0.15 0.00 92 1004.1
20260507032334 13 211 0.0 0.0 0.00 0.15 0.00 92 1004.1
20260507031834 13 211 0.0 0.0 0.00 0.15 0.00 92 1004.1
20260507031334 13 211 0.0 0.0 0.00 0.15 0.00 92 1004.1
20260507030834 13 211 0.0 0.0 0.00 0.15 0.00 92 1004.1
20260507030336 13 211 0.0 0.0 0.00 0.15 0.00 92 1004.1
20260507025834 13 211 0.0 0.0 0.00 0.15 0.15 92 1003.9
20260507025334 13 213 0.0 0.0 0.00 0.15 0.15 92 1003.9
20260507024834 13 213 0.0 0.0 0.00 0.15 0.15 92 1003.9
20260507023834 13 205 0.0 0.0 0.00 0.15 0.15 92 1003.7
20260507023334 13 205 0.0 0.0 0.00 0.15 0.15 92 1003.7
20260507022835 13 205 0.0 0.0 0.00 0.15 0.15 92 1004.1
20260507022335 13 205 0.0 0.0 0.00 0.15 0.15 92 1004.1
20260507021834 13 205 0.0 0.0 0.00 0.15 0.15 92 1004.1
20260507021334 13 205 0.0 0.0 0.00 0.15 0.15 92 1004.1
20260507015849 13 205 0.0 0.0 0.00 0.15 0.15 92 1004.6
20260507015334 13 205 0.0 0.0 0.00 0.15 0.15 92 1004.6
20260507014834 13 205 0.0 0.0 0.00 0.15 0.15 92 1004.6
20260507014334 13 205 0.0 0.0 0.00 0.15 0.15 92 1004.6
20260507013834 13 205 0.0 0.0 0.00 0.15 0.15 92 1004.6
20260507013335 13 205 0.0 0.0 0.00 0.15 0.15 92 1004.6
20260507012834 13 205 0.0 0.0 0.00 0.15 0.15 92 1004.6
20260507012334 13 205 0.0 0.0 0.00 0.15 0.15 92 1004.6
20260507011835 13 205 0.0 0.0 0.00 0.15 0.15 92 1004.6
20260507011334 13 205 0.0 0.0 0.00 0.15 0.15 92 1004.7
20260507010834 13 205 0.0 0.0 0.00 0.15 0.15 92 1004.7
20260507010334 13 205 0.0 0.0 0.00 0.15 0.15 92 1004.7
20260507005335 13 204 0.0 0.0 0.03 0.15 0.15 92 1004.6
20260507004834 13 204 0.0 0.0 0.03 0.15 0.15 92 1004.6
20260507004334 13 205 0.0 0.0 0.03 0.15 0.15 92 1004.5
20260507003834 13 234 0.0 0.0 0.03 0.15 0.15 91 1004.5
20260507003334 13 234 0.0 0.0 0.03 0.15 0.15 91 1004.5
20260507002834 13 234 0.0 0.0 0.03 0.15 0.15 91 1004.5
20260507002334 13 234 0.0 0.0 0.03 0.15 0.15 91 1004.5
20260507001834 13 234 0.0 0.0 0.03 0.15 0.15 91 1004.5
20260507001334 13 235 0.0 0.0 0.03 0.15 0.15 91 1004.3
20260507000835 13 205 0.0 0.0 0.03 0.15 0.15 91 1004.3
20260507000336 13 205 0.0 0.0 0.03 0.15 0.15 91 1004.3
20260506235835 13 205 0.0 0.0 0.03 0.15 0.15 91 1004.4
20260506235334 13 219 0.0 0.0 0.00 0.13 0.13 91 1004.4
20260506234834 13 215 0.0 0.0 0.00 0.13 0.13 91 1004.4
20260506234334 13 218 0.0 1.6 0.03 0.13 0.13 91 1004.5
20260506233335 13 200 0.0 3.2 0.03 0.13 0.13 91 1004.5
20260506232834 13 219 0.0 1.6 0.03 0.13 0.13 91 1004.6
20260506231834 13 211 0.0 0.0 0.08 0.13 0.13 91 1004.6
20260506231334 13 231 0.0 0.0 0.08 0.13 0.13 91 1004.6
20260506230834 13 200 0.0 0.0 0.08 0.13 0.13 91 1004.6
20260506230334 13 200 0.0 0.0 0.08 0.13 0.13 91 1004.6
20260506225834 13 202 0.0 0.0 0.08 0.13 0.13 91 1004.4
20260506224834 13 203 0.0 0.0 0.08 0.13 0.13 90 1004.4
20260506224334 13 205 0.0 0.0 0.05 0.10 0.10 90 1004.5
20260506223834 14 214 0.0 0.0 0.05 0.10 0.10 90 1004.5
20260506223334 14 215 0.0 0.0 0.05 0.10 0.10 90 1004.5
20260506222834 14 215 0.0 0.0 0.05 0.10 0.10 90 1004.9
20260506222334 14 231 0.0 0.0 0.03 0.08 0.08 90 1004.9
20260506221835 14 218 0.0 8.0 0.00 0.05 0.05 90 1004.9
20260506221334 14 191 0.0 8.0 0.00 0.05 0.05 89 1005.0
20260506220334 14 231 0.0 0.0 0.00 0.05 0.05 89 1005.0
20260506215834 14 208 0.0 0.0 0.00 0.05 0.05 89 1005.1
20260506214834 14 210 0.0 0.0 0.00 0.05 0.05 89 1005.1
20260506214334 14 209 0.0 3.2 0.00 0.05 0.05 89 1005.1
20260506213834 14 205 0.0 3.2 0.00 0.05 0.05 89 1005.1
20260506213334 15 216 0.0 3.2 0.00 0.05 0.05 89 1005.1
20260506212334 15 205 0.0 0.0 0.00 0.05 0.05 89 1005.1
20260506211834 15 206 0.0 0.0 0.00 0.05 0.05 88 1005.1
20260506211334 15 206 0.0 0.0 0.00 0.05 0.05 89 1005.2
20260506210834 15 233 0.0 0.0 0.03 0.05 0.05 89 1005.2
20260506210334 15 221 0.0 4.8 0.03 0.05 0.05 88 1005.2
20260506205834 15 231 0.0 4.8 0.05 0.05 0.05 88 1005.2
20260506205334 15 215 0.0 0.0 0.05 0.05 0.05 88 1005.2
20260506204834 15 214 0.0 0.0 0.05 0.05 0.05 88 1005.2
20260506204334 15 232 0.0 0.0 0.05 0.05 0.05 88 1005.3
20260506203834 15 227 0.0 0.0 0.05 0.05 0.05 88 1005.3
20260506203335 15 236 0.0 0.0 0.05 0.05 0.05 88 1005.3
20260506202334 15 197 0.0 0.0 0.05 0.05 0.05 87 1005.6
20260506201834 15 198 0.0 0.0 0.05 0.05 0.05 88 1005.6
20260506201334 15 200 0.0 0.0 0.05 0.05 0.05 87 1005.6
20260506200834 15 198 0.0 0.0 0.03 0.03 0.03 87 1005.6
20260506195334 16 238 0.0 0.0 0.00 0.00 0.00 85 1005.7
20260506194834 16 202 0.0 0.0 0.00 0.00 0.00 84 1005.8
20260506193834 16 215 0.0 4.8 0.00 0.00 0.00 82 1005.7
20260506193334 17 203 0.0 0.0 0.00 0.00 0.00 81 1005.8
20260506192334 17 255 0.0 4.8 0.00 0.00 0.00 79 1005.7
20260506191834 17 209 0.0 0.0 0.00 0.00 0.00 79 1005.7
20260506190834 17 230 0.0 3.2 0.00 0.00 0.00 79 1005.9
20260506190334 17 207 0.0 3.2 0.00 0.00 0.00 79 1005.9
20260506185835 17 243 0.0 0.0 0.00 0.00 0.00 79 1005.7
20260506185334 17 208 0.0 8.0 0.00 0.00 0.00 78 1005.7
20260506184335 17 203 0.0 6.4 0.00 0.00 0.00 78 1006.0